EW6230 Weather Reports


time (UTC)temp
C
wind
direction
speed
KPH
gust
KPH
rain 1hr
cm
rain 24hr
cm
rain mn
cm
humidity
%
barometer
mb
20220629040020 13 153 0.0 0.0 0.00 0.00 0.00 1 1015.2
20220629034514 13 153 0.0 0.0 0.00 0.00 0.00 1 1015.1
20220629033014 13 153 0.0 0.0 0.00 0.00 0.00 1 1015.1
20220629031506 13 153 0.0 0.0 0.00 0.00 0.00 1 1014.8
20220629030002 13 155 0.0 0.0 0.00 0.00 0.00 1 1014.6
20220629024557 14 155 0.0 0.0 0.00 0.00 0.00 1 1014.5
20220629023102 14 155 0.0 0.0 0.00 0.00 0.00 1 1014.4
20220629021548 14 155 0.0 0.0 0.00 0.00 0.00 1 1014.3
20220629020047 15 95 0.0 0.0 0.00 0.00 0.00 1 1014.1
20220629014540 15 111 0.0 0.0 0.00 0.00 0.00 1 1014.1
20220629013035 15 109 0.0 0.0 0.00 0.00 0.00 1 1014.0
20220629011543 14 147 0.0 0.0 0.00 0.00 0.00 1 1014.0
20220629010026 14 145 0.0 0.0 0.00 0.00 0.00 1 1014.2
20220629004522 14 161 0.0 0.0 0.00 0.00 0.00 1 1014.3
20220629003016 14 161 0.0 0.0 0.00 0.00 0.00 1 1014.3
20220629001515 14 170 0.0 0.0 0.00 0.00 0.00 1 1014.3
20220629000008 15 170 0.0 0.0 0.00 0.00 0.00 1 1014.3
20220628234504 15 148 0.0 0.0 0.00 0.00 0.00 1 1014.1
20220628233110 15 89 0.0 0.0 0.00 0.00 0.00 1 1014.0
20220628231555 15 89 0.0 0.0 0.00 0.00 0.00 2 1014.0
20220628230052 15 89 0.0 0.0 0.00 0.00 0.00 24 1014.0
20220628224559 15 89 0.0 0.0 0.00 0.00 0.00 43 1013.9
20220628223044 15 89 0.0 0.0 0.00 0.00 0.00 50 1013.8
20220628221539 15 89 0.0 0.0 0.00 0.00 0.00 52 1013.6
20220628220035 16 89 0.0 0.0 0.00 0.00 0.00 47 1013.4
20220628214530 16 89 0.0 0.0 0.00 0.00 0.00 54 1013.5
20220628213026 16 89 0.0 0.0 0.00 0.00 0.00 53 1013.5
20220628211523 16 89 0.0 0.0 0.00 0.00 0.00 58 1013.3
20220628210018 17 89 0.0 0.0 0.00 0.00 0.00 58 1013.3
20220628204515 17 89 0.0 0.0 0.00 0.00 0.00 61 1013.3
20220628203008 17 89 0.0 0.0 0.00 0.00 0.00 59 1013.3
20220628201506 17 87 0.0 0.0 0.00 0.00 0.00 62 1013.3
20220628200005 17 160 0.0 0.0 0.00 0.00 0.00 62 1013.1
20220628194558 18 161 0.0 0.0 0.00 0.00 0.00 61 1013.0
20220628193054 19 88 0.0 0.0 0.00 0.00 0.00 62 1012.8
20220628191549 18 106 0.0 0.0 0.00 0.00 0.00 62 1012.9
20220628190045 18 73 0.0 0.0 0.00 0.00 0.00 62 1013.1
20220628184546 18 320 0.0 0.0 0.00 0.00 0.00 62 1013.2
20220628183035 18 320 0.0 0.0 0.00 0.00 0.00 62 1013.1
20220628181533 18 222 0.0 0.0 0.00 0.00 0.00 62 1013.2
20220628180035 18 222 0.0 0.0 0.00 0.00 0.00 61 1013.0
20220628174525 18 262 0.0 0.0 0.00 0.00 0.00 62 1012.9
20220628173019 17 264 0.0 0.0 0.00 0.00 0.00 62 1012.8
20220628171517 16 221 0.0 0.0 0.00 0.00 0.00 52 1012.6
20220628170011 16 203 0.0 0.0 0.00 0.00 0.00 58 1012.7
20220628164507 17 115 0.0 0.0 0.00 0.00 0.00 62 1012.6
20220628163003 17 179 0.0 0.0 0.00 0.00 0.00 61 1012.5
20220628161600 17 123 0.0 0.0 0.00 0.00 0.00 57 1012.5
20220628160059 16 123 0.0 0.0 0.00 0.00 0.00 52 1012.5
20220628154553 15 122 0.0 0.0 0.00 0.00 0.00 10 1012.3
20220628153044 15 162 0.0 0.0 0.00 0.00 0.00 10 1012.3
20220628151539 15 162 0.0 0.0 0.00 0.00 0.00 1 1012.1
20220628150035 13 162 0.0 0.0 0.00 0.00 0.00 1 1011.9
20220628144531 13 162 0.0 0.0 0.00 0.00 0.00 1 1011.8
20220628143033 13 163 0.0 0.0 0.00 0.00 0.00 1 1011.7
20220628141523 12 163 0.0 0.0 0.00 0.00 0.00 1 1011.6
20220628140018 12 163 0.0 0.0 0.00 0.00 0.00 1 1011.5
20220628134513 12 162 0.0 0.0 0.00 0.00 0.00 1 1011.4
20220628133008 12 162 0.0 0.0 0.00 0.00 0.00 1 1011.3
20220628131503 12 162 0.0 0.0 0.00 0.00 0.00 1 1011.1
20220628130100 11 162 0.0 0.0 0.00 0.00 0.00 1 1010.8
20220628124559 11 163 0.0 0.0 0.00 0.00 0.00 1 1010.8
20220628123051 11 162 0.0 0.0 0.00 0.00 0.00 1 1010.7
20220628121546 11 162 0.0 0.0 0.00 0.00 0.00 1 1010.8
20220628120042 10 162 0.0 0.0 0.00 0.00 0.00 1 1010.7
20220628114539 10 163 0.0 0.0 0.00 0.00 0.00 1 1010.6
20220628113033 10 163 0.0 0.0 0.00 0.00 0.00 1 1010.5
20220628111529 10 163 0.0 0.0 0.00 0.00 0.00 1 1010.5
20220628110024 10 163 0.0 0.0 0.00 0.00 0.00 1 1010.4
20220628104521 10 162 0.0 0.0 0.00 0.00 0.00 1 1010.3
20220628103015 10 165 0.0 0.0 0.00 0.00 0.00 1 1010.2
20220628101513 10 199 0.0 0.0 0.00 0.00 0.00 1 1010.2
20220628100008 10 198 0.0 0.0 0.00 0.00 0.00 1 1010.4
20220628094502 10 199 0.0 0.0 0.00 0.00 0.00 1 1010.3
20220628093058 10 199 0.0 0.0 0.00 0.00 0.00 1 1010.4
20220628091602 11 199 0.0 0.0 0.00 0.00 0.00 1 1010.3
20220628090050 11 243 0.0 0.0 0.00 0.00 0.00 1 1010.3
20220628084545 11 243 0.0 0.0 0.00 0.00 0.00 1 1010.3
20220628083040 11 241 0.0 0.0 0.00 0.00 0.00 1 1010.2
20220628081536 11 240 0.0 0.0 0.00 0.00 0.00 1 1010.3
20220628080032 11 240 0.0 0.0 0.00 0.00 0.00 1 1010.3
20220628074529 11 245 0.0 0.0 0.00 0.00 0.00 1 1010.4
20220628073023 11 245 0.0 0.0 0.00 0.00 0.00 1 1010.2
20220628071529 12 245 0.0 0.0 0.00 0.00 0.00 1 1010.0
20220628070014 12 226 0.0 0.0 0.00 0.00 0.00 1 1010.0
20220628064511 12 226 0.0 0.0 0.00 0.00 0.00 1 1009.9
20220628063005 13 230 0.0 0.0 0.00 0.00 0.00 1 1009.8
20220628061601 13 230 0.0 0.0 0.00 0.00 0.00 1 1009.7
20220628060100 13 63 0.0 0.0 0.00 0.00 0.00 1 1009.4
20220628054554 13 289 0.0 0.0 0.00 0.00 0.00 1 1009.3
20220628053047 13 347 0.0 0.0 0.00 0.00 0.00 1 1009.3
20220628051543 13 266 0.0 0.0 0.00 0.00 0.00 1 1009.4
20220628050043 13 278 0.0 0.0 0.00 0.00 0.00 1 1009.2
20220628044535 14 277 0.0 0.0 0.00 0.00 0.00 1 1009.2
20220628043036 15 278 0.0 0.0 0.00 0.00 0.00 11 1009.0
20220628041531 15 292 0.0 0.0 0.00 0.00 0.00 24 1009.0